{"data":{"norad_id":53586,"intl_designator":"2022-102A","name":"CHUANGXIN 16A (CX-16A)","alt_names":[],"object_type":"PAYLOAD","status":"ACTIVE","operator":null,"country":"PRC","launch_date":"2022-08-23","launch_site_code":"XICLF","launch_vehicle":null,"mission":null,"orbit_class":"UNKNOWN","rcs_meters":null,"size_class":null,"mass_kg":null,"dimensions":null,"purposes":[],"wikipedia_slug":null,"has_3d_model":false,"image_url":null,"decayed_at":null,"tle_current":{"epoch":"2026-09-20T03:42:11.176128Z","epoch_age_seconds":176653,"freshness":"STALE","line1":"1 53586U 22102A   26263.15429602  .00001264  00000+0  73654-4 0  9993","line2":"2 53586  28.9951  64.3055 0004681 296.6704  63.3416 15.06188402223857","mean_motion":15.06188402,"eccentricity":0.0004681,"inclination_deg":28.9951,"raan_deg":64.3055,"arg_perigee_deg":296.6704,"mean_anomaly_deg":63.3416,"bstar":7.3654e-5,"rev_number":22385,"period_min":95.605569534853,"perigee_km":544.61809198777,"apogee_km":551.10221052077,"semimajor_km":6925.9971512543,"source":"CELESTRAK","updated_at":"2026-09-21T09:00:09.100843Z"}}}